Home   Weather   Cambridge   Past weeks

Flag for USA Past Weather in Cambridge, Massachusetts, USA — Yesterday and Last 2 Weeks

Now
40 °F

Light rain. Mostly cloudy.


Feels Like: 31 °F
Forecast: 35 / 41 °F
Wind: 16 mph from East

Location: Logan International Airport

Current Time: Dec 7, 2016 at 3:54:17 am

Latest Report: Dec 7, 2016 at 2:54 am


Visibility: 10 mi

Pressure: 29.94 "Hg

Humidity: 83%

Dew Point: 35 °F

Location of CambridgeLocation

Past Weather in Cambridge — Graph

°F

Cambridge Temperature Yesterday

Maximum temperature yesterday: 44 °F (at 11:54 am)
Minimum temperature yesterday: 34 °F (at 4:54 am)
Average temperature yesterday: 39 °F

High & Low Weather Summary for the Past Weeks

 TemperatureHumidityPressure
High58 °F (Nov 29, 10:54 pm)100% (Nov 25, 8:54 am)30.37 "Hg (Nov 25, 8:54 am)
Low31 °F (Dec 5, 12:54 am)43% (Nov 22, 12:54 pm)29.40 "Hg (Dec 1, 5:54 am)
Average41 °F73%30.01 "Hg
* Reported Nov 22 1:54 am — Dec 7 1:54 am, Cambridge, Weather by CustomWeather, © 2016

Note: Actual official high and low records may vary slightly from our data, if they occured in-between our weather recording intervals... More about our weather records

Advertising

Cambridge Weather History for the Previous 24 Hours

Scroll right to see more
 ConditionsComfort  
Time TempWeatherWind HumidityBarometerVisibility
1:54 am
Wed, Dec 7
41 °FMostly cloudy.10 mph76%29.96 "Hg10 mi
12:54 am41 °FMostly cloudy.10 mph76%29.95 "Hg10 mi
11:54 pm
Tue, Dec 6
41 °FOvercast.6 mph80%29.98 "Hg10 mi
10:54 pm40 °FOvercast.3 mph73%30.00 "Hg10 mi
9:54 pm41 °FOvercast.No wind70%30.01 "Hg10 mi
8:54 pm40 °FMostly cloudy.6 mph77%30.03 "Hg10 mi
7:54 pm41 °FMostly cloudy.7 mph70%30.02 "Hg10 mi
6:54 pm40 °FMostly cloudy.5 mph73%30.02 "Hg10 mi
5:54 pm39 °FMostly cloudy.7 mph73%30.03 "Hg10 mi
4:54 pm40 °FMostly cloudy.9 mph68%30.01 "Hg10 mi
3:54 pm40 °FMostly cloudy.6 mph65%30.04 "Hg10 mi
2:54 pm42 °FBroken clouds.5 mph57%30.06 "Hg10 mi
1:54 pm44 °FPartly sunny.6 mph53%30.06 "Hg10 mi
12:54 pm43 °FPartly sunny.9 mph53%30.07 "Hg10 mi
11:54 am44 °FPartly sunny.12 mph53%30.09 "Hg10 mi
10:54 am42 °FPassing clouds.14 mph57%30.12 "Hg10 mi
9:54 am40 °FPassing clouds.14 mph68%30.13 "Hg10 mi
8:54 am38 °FPassing clouds.9 mph73%30.12 "Hg10 mi
7:54 am37 °FPassing clouds.5 mph76%30.13 "Hg10 mi
6:54 am35 °FPassing clouds.8 mph78%30.11 "Hg10 mi
5:54 am35 °FClear.8 mph82%30.11 "Hg10 mi
4:54 am34 °FClear.7 mph85%30.10 "Hg10 mi
3:54 am36 °FClear.9 mph79%30.09 "Hg10 mi
Weather by CustomWeather, © 2016

See weather overviewHow to use our weather pages